Location: Piotrkow Trybunalski
(51.4000°N, 19.6830°E)
Time: 20:33:01
(UTC+01:00)

BlueWalker 3 - Visible Passes

Search period start: 24 March 2023 00:00
Search period end: 03 April 2023 01:00
Orbit: 497 x 515 km, 53.2° (Epoch: 24 March)

Date Brightness Start Highest point End Pass type
(mag) Time Alt. Az. Time Alt. Az. Time Alt. Az.
24 Mar 3.8 03:51:01 17° S 03:51:01 17° S 03:52:20 10° S visible
26 Mar 4.4 21:13:04 10° SSW 21:13:16 11° SSW 21:13:16 11° SSW visible
27 Mar 3.2 20:53:16 10° SSW 20:55:38 25° S 20:55:38 25° S visible
28 Mar 2.8 20:33:26 10° SSW 20:36:51 29° SE 20:37:41 27° ESE visible
28 Mar 4.1 22:11:14 10° WSW 22:12:29 19° WSW 22:12:29 19° WSW visible
29 Mar 2.8 20:13:34 10° SSW 20:17:01 30° SE 20:19:26 16° E visible
29 Mar 2.7 21:51:25 10° WSW 21:54:13 45° WSW 21:54:13 45° WSW visible
30 Mar 2.8 19:53:41 10° SSW 19:57:09 31° SE 20:00:37 10° E visible
30 Mar 1.8 21:31:34 10° WSW 21:35:28 87° NNW 21:35:41 79° ENE visible
30 Mar 5.0 23:10:21 10° W 23:10:26 11° W 23:10:26 11° W visible
31 Mar 1.9 21:11:41 10° WSW 21:15:35 86° NNW 21:16:56 39° ENE visible
31 Mar 4.4 22:50:27 10° W 22:51:41 19° WNW 22:51:41 19° WNW visible
01 Apr 1.9 20:51:45 10° WSW 20:55:40 85° NNW 20:58:02 23° ENE visible
01 Apr 3.6 22:30:32 10° WNW 22:32:46 32° WNW 22:32:46 32° WNW visible
02 Apr 2.0 20:31:48 10° WSW 20:35:43 84° NNW 20:39:00 14° ENE visible
02 Apr 2.7 22:10:35 10° WNW 22:13:44 52° NW 22:13:44 52° NW visible
